Погода в Бремерхафене

Германия     53°32′16″N   8°35′22″E
темп.,
°C
ветер,
м/с
пор.,
м/с
влажн.,
%
обл.,
%
осадки,
мм/ч
давл.,
гПа
погр.,
м
25 октября, пн
пн2523:00+6ю510835 0.0 1019170
02:00+5ююз510855 0.0 1018189
05:00+4ююз510920 0.0 1017192
08:00+4ююз510932 0.0 1017196
11:00+8ююз61076100 0.0 1017301
14:00+10ююз6975100 0.1 1016413
17:00+9ююз51088100 1.1 1015374
20:00+8ююз5109393 1.8 1016316
26 октября, вт
вт2623:00+9ююз51092100 0.0 1016287
02:00+9ююз5129580 0.0 1015370
05:00+9ююз61196100 0.3 1015403
08:00+9юз5109781 0.7 1015310
11:00+10зюз69902 0.1 1017373
14:00+13зюз687824 0.9 1018915
17:00+12зюз5884100 0.4 1018442
20:00+9юз5119553 0.4 1019303
27 октября, ср
ср2723:00+9ююз61295100 0.0 1019323
02:00+10ююз61390100 0.0 1019456
05:00+10ююз71396100 0.0 1018404
08:00+11ююз71395100 0.1 1019548
11:00+12юз81390100 0.1 1019740
14:00+14юз71386100 0.1 1020803
17:00+14юз71281100 0.1 1019768
20:00+13ююз61390100 0.1 1019423
28 октября, чт
чт2823:00+12ююз6148999 0.0 1019401
02:00+11ююз6149296 0.0 1019355
05:00+10ююз6139156 0.0 1019308
08:00+9ю5129325 0.0 1019271
11:00+12ю5117962 0.0 1018354
14:00+15ю58685 0.0 1017464
17:00+14ююв47755 0.0 1016189
20:00+11ююв49875 0.0 1015146
29 октября, пт
пт2923:00+10ююв4108442 0.0 1014175
02:00+8ююв410805 0.0 1012176
05:00+7ююв48765 0.0 1010132
08:00+7ююв48790 0.0 1009140
11:00+10ю59704 0.0 1007264
14:00+14ю5864100 0.0 1006478
17:00+13ююв61072100 0.0 1005356
20:00+10ю5128537 0.0 1004239